Showing default

AISSAT 2, 40075

Orbit data source: Space-Track

AISSAT 2, 40075 is a payload satellite owned by NSC (NO) in SSO that was launched on Tue, 08 Jul 2014 UTC via a SOYUZ-2-1B launch vehicle from the Tyuratam Missile And Space Complex (TTMTR). Payload-class satellites include a variety of spacecraft equipped with specific instruments for various scientific and technological missions. These include communications satellites like Starlink; space stations such as the ISS; scientific satellites like the Hubble; Earth observation satellites from companies like Planet Labs, Umbra, and HawkEye 360; GPS; miniature CubeSats for education and research; and military/defense satellites.

Loading next visibility...
Identifier
40075, 2014-037G
Orbit
SSO
Country
Flag of NONO / NOR
Related business
Manufacturer
UTIAS-SFL
Mission
Non-operational Civil Communications
Bus & Motor
GNB, Unknown motor
Mass
7 kg wet, 7 kg dry
Launch date (UTC)
2014-07-08 (11 years ago)
Launch vehicle
SOYUZ-2-1B
Launch site
Tyuratam Missile And Space Complex (TTMTR)
Object type
Payload
Rocket body
Debris
Shape & HBR
Box + 2 Ant, 0.5 m
Radar Cross Section
0.093 m², Medium (>0.1 m² and < 1m²)

Expand to show TLE details & history
Last TLE update: 18 hours ago

TLE from 18 hours ago
0 AISSAT 2
1 40075U 14037G   25260.82242451  .00002847  00000-0  28967-3 0  9990
2 40075  98.3646 211.1205 0006556  75.5407 284.6537 14.91632907606117
Epoch: 2025-09-17T19:44Z
TLE epoch observation values (Epoch: 2025-09-17T19:44:17.477Z)
Latitude
-0.00003°
Longitude
-81.94517°
Altitude
594.713 km
Speed
7.563 km/s
True Right ascension
14h 04m 28s
True Declination
0° 00' 00"
Sunlit
Object was in daylight at epoch
Visualization orbit readout
Latitude
Unknown
Longitude
Unknown
Altitude
Unknown
Speed
Unknown
Apparent Right ascension
Unknown
Apparent Declination
Unknown
Sunlit
N/A
Visualization observer readout
Local Sidereal Time
06:32:25
Azimuth
Unknown
Elevation
Unknown
Doppler factor
Unknown
Orbital elements
Apogee altitude
594.459 km
Perigee altitude
585.322 km
Semi-major axis
6,968.027 km
Eccentricity
0.00066
Inclination
98.3646°
RAAN
211.1205°
Arg. of periapsis
75.5407°
True anomaly
284.581°
Mean anomaly
284.6537°
Eccentric anomaly
284.61735°
Mean motion
3.73146 °/min
Orbital period
96.48 mins
BSTAR
0.00028967
Loading maneuver chart data...
Computing Atmospheric mass density...
Loading historical data...
Loading historical data...
Loading historical data...
Loading historical data...
Loading historical data...
Loading historical data...
Loading historical data...

Documentation

Showing up to 5 results
|